Flag for Germany Weather past 2 weeks in Garbsen, Lower Saxony, Germany

Now
46 °F

Drizzle. More clouds than sun.


Feels Like: 38 °F
Forecast: 45 / 55 °F
Wind: 26 mph from West

Location: Hannover

Current Time: Oct 22, 2014 at 12:19:36 PM

Latest Report: Oct 22, 2014 at 11:50 AM


Visibility: 2 mi

Pressure: 29.71 "Hg

Humidity: 93%

Dew point: 45 °F

Location of GarbsenLocation

Historic Weather in Garbsen — Graph

°F

Garbsen temperature yesterday

Maximum temperature yesterday: 55 °F (at 12:20 AM)
Minimum temperature yesterday: 48 °F (at 10:50 PM)
Average temperature yesterday: 54 °F

Past Weeks' High & Low Weather Summary

 TemperatureHumidityPressure
High73 °F (Oct 19, 4:20 PM)100% (Oct 9, 2:50 AM)30.15 "Hg (Oct 9, 2:50 AM)
Low46 °F (Oct 22, 2:20 AM)52% (Oct 14, 2:20 PM)29.42 "Hg (Oct 21, 6:20 PM)
Average57 °F86%29.82 "Hg
* Reported Oct 7 11:20 AM — Oct 22 11:20 AM, Garbsen, Weather by CustomWeather, © 2014

Note: Actual official high and low records may vary slightly from our data, if they occured in-between our weather recording intervals... More about our weather records

Advertising

Garbsen weather history for previous 24 hours

 ConditionsComfort  
Time TempWeatherWind HumidityBarometerVisibility
11:20 AM
Oct 22
46 °FLight rain. More clouds than sun.22 mph93%29.71 "Hg6 mi
10:50 AM46 °FRain. Broken clouds.23 mph93%29.71 "HgN/A
10:20 AM46 °FRain. Broken clouds.21 mph93%29.71 "HgN/A
9:50 AM46 °FRain. Broken clouds.18 mph93%29.71 "HgN/A
9:20 AM46 °FLight rain. Partly sunny.16 mph87%29.71 "HgN/A
8:50 AM46 °FLight rain. Passing clouds.18 mph87%29.71 "HgN/A
8:20 AM46 °FSprinkles. Passing clouds.18 mph87%29.71 "HgN/A
7:50 AM46 °FPassing clouds.16 mph87%29.71 "HgN/A
7:20 AM46 °FPassing clouds.20 mph87%29.68 "HgN/A
6:50 AM48 °FPassing clouds.18 mph87%29.68 "HgN/A
6:20 AM48 °FLight rain. Passing clouds.20 mph87%29.65 "HgN/A
5:50 AM48 °FPassing clouds.18 mph87%29.65 "HgN/A
5:20 AM48 °FPassing clouds.17 mph87%29.65 "HgN/A
4:50 AM46 °FLight rain. Partly cloudy.14 mph93%29.65 "HgN/A
4:20 AM46 °FLight rain. Partly cloudy.13 mph93%29.65 "HgN/A
3:50 AM46 °FLight rain. Partly cloudy.14 mph93%29.65 "HgN/A
3:20 AM46 °FLight rain. Partly cloudy.13 mph87%29.65 "HgN/A
2:50 AM46 °FLight rain. Passing clouds.15 mph87%29.62 "HgN/A
2:20 AM46 °FPassing clouds.17 mph87%29.62 "HgN/A
1:50 AM48 °FLight rain. Passing clouds.16 mph82%29.62 "HgN/A
1:20 AM48 °FPartly cloudy.16 mph82%29.62 "HgN/A
12:50 AM48 °FPassing clouds.15 mph82%29.59 "HgN/A
12:20 AM48 °FPassing clouds.15 mph82%29.59 "HgN/A
11:50 PM
Oct 21
48 °FPassing clouds.14 mph82%29.56 "HgN/A
11:20 PM48 °FPassing clouds.14 mph87%29.53 "HgN/A
10:50 PM48 °FPassing clouds.16 mph87%29.53 "HgN/A
10:20 PM50 °FLight rain. Passing clouds.15 mph82%29.53 "HgN/A
9:50 PM50 °FPassing clouds.16 mph88%29.50 "HgN/A
9:20 PM50 °FLight rain. Passing clouds.13 mph94%29.47 "HgN/A
8:50 PM50 °FLight rain. Partly cloudy.12 mph94%29.47 "HgN/A
8:20 PM52 °FLight rain. Partly cloudy.15 mph88%29.45 "HgN/A
7:50 PM52 °FLight rain. Passing clouds.14 mph94%29.45 "HgN/A
7:20 PM54 °FLight rain. Passing clouds.10 mph94%29.45 "HgN/A
6:50 PM54 °FRain. Partly sunny.8 mph88%29.42 "Hg6 mi
6:20 PM54 °FLight rain. Broken clouds.9 mph88%29.42 "HgN/A
5:50 PM54 °FLight rain. Broken clouds.14 mph88%29.45 "HgN/A
5:20 PM54 °FLight rain. Partly sunny.17 mph88%29.45 "HgN/A
4:50 PM54 °FLight rain. Mostly cloudy.17 mph88%29.47 "HgN/A
4:20 PM55 °FBroken clouds.17 mph82%29.47 "HgN/A
3:50 PM55 °FBroken clouds.17 mph82%29.50 "HgN/A
3:20 PM55 °FPartly sunny.17 mph82%29.50 "HgN/A
2:50 PM55 °FBroken clouds.16 mph82%29.53 "HgN/A
2:20 PM55 °FBroken clouds.16 mph82%29.56 "HgN/A
1:50 PM55 °FBroken clouds.15 mph82%29.59 "HgN/A
1:20 PM55 °FPartly sunny.14 mph82%29.62 "HgN/A
12:50 PM55 °FBroken clouds.15 mph82%29.62 "HgN/A
12:20 PM55 °FBroken clouds.15 mph82%29.65 "HgN/A
Weather by CustomWeather, © 2014

See weather overviewHow to use our weather pages